This is the latest recevied weather packets stored in our database for station/object N8SDR. If no packets are shown the sender has not sent any weather packets the latest 10 day(s).
| Time | Temp. | Humidity | Pressure | Rain* | Wind** | Luminosity | Snow |
|---|---|---|---|---|---|---|---|
| 1777941119 | 22.78° C | 56% | 1001.4 hPa | 0 mm | - | 3 W/m² | - |
| 1777940815 | 22.78° C | 56% | 1001.3 hPa | 0 mm | - | 6 W/m² | - |
| 1777940513 | 23.33° C | 56% | 1001.5 hPa | 0 mm | - | 10 W/m² | - |
| 1777940210 | 23.33° C | 54% | 1001.4 hPa | 0 mm | - | 14 W/m² | - |
| 1777939908 | 23.33° C | 54% | 1001.6 hPa | 0 mm | - | 19 W/m² | - |
| 1777939604 | 23.33° C | 54% | 1001.6 hPa | 0 mm | - | 19 W/m² | - |
| 1777939303 | 23.89° C | 53% | 1001.8 hPa | 0 mm | - | 26 W/m² | - |
| 1777938998 | 23.89° C | 52% | 1001.8 hPa | 0 mm | - | 39 W/m² | - |
| 1777938695 | 23.89° C | 51% | 1001.6 hPa | 0 mm | - | 53 W/m² | - |
| 1777938392 | 23.89° C | 51% | 1002.1 hPa | 0 mm | - | 55 W/m² | - |
| 1777938090 | 23.89° C | 51% | 1001.8 hPa | 0 mm | - | 48 W/m² | - |
| 1777937785 | 23.89° C | 52% | 1002.2 hPa | 0 mm | - | 49 W/m² | - |
| 1777937481 | 23.89° C | 51% | 1002.2 hPa | 0 mm | - | 40 W/m² | - |
| 1777937180 | 23.89° C | 51% | 1002.1 hPa | 0 mm | - | 39 W/m² | - |
| 1777936876 | 23.89° C | 52% | 1002.2 hPa | 0 mm | - | 46 W/m² | - |
| 1777936573 | 24.44° C | 51% | 1002.1 hPa | 0 mm | - | 48 W/m² | - |
| 1777936269 | 24.44° C | 53% | 1002.1 hPa | 0 mm | - | 69 W/m² | - |
| 1777935965 | 25° C | 54% | 1002.1 hPa | 0 mm | - | 140 W/m² | - |
| 1777935664 | 24.44° C | 54% | 1002.1 hPa | 0 mm | - | 144 W/m² | - |
| 1777935361 | 24.44° C | 56% | 1002.1 hPa | 0 mm | - | 91 W/m² | - |
| 1777935058 | 24.44° C | 56% | 1002.2 hPa | 0 mm | - | 108 W/m² | - |
| 1777934755 | 23.89° C | 56% | 1002.2 hPa | 0 mm | - | 155 W/m² | - |
| 1777934452 | 23.89° C | 56% | 1002.4 hPa | 0 mm | - | 180 W/m² | - |
| 1777934149 | 23.89° C | 56% | 1002.3 hPa | 0 mm | - | 151 W/m² | - |
| 1777933844 | 23.89° C | 56% | 1002.3 hPa | 0 mm | - | 107 W/m² | - |
* Rain latest hour (hover to see other rain measurements)
** Current wind speed in m/s (hover to see current wind gust speed)